Date String (YYYY-MM-DD hh:mm:ss) UTC,Instrument flags,absolute air pressure of the measurement (hPa),sample flow rate (lpm),inlet stack bypass flow (lpm),air temperature of the measurement (°C),ambient temperature measured by the external sensor (°C),aerosol sample conditioner tube jacket temperature (°C),OPC LED temperature (°C),internal box temperature (°C),relative humidity of the measurement (%),span deviation,mass concentration of particles derived from Lorenz-Mie calculation of OPC scattering (μg/m³),mass concentration of particles derived from Lorenz-Mie calculation of OPC scattering (μg/m³),mass concentration of particles derived from Lorenz-Mie calculation of OPC scattering (μg/m³)
DateTimeUTC,F1_M11,P_M11,Q1_M11,Q2_M11,T1_M11,T2_M11,T3_M11,T4_M11,T5_M11,U1_M11,ZSPAN_M11,X0_M11,X2_M11,X1_M11
2023-11-26 22:00:00,SystemResetWarning,0831.1,4.99,000.00,024.6,023.7,000.0,032.8,026.0,9.1,0000.0,0008.89,0005.20,0004.95
2023-11-26 22:01:00,SystemResetWarning,0831.1,5.00,000.00,024.6,023.7,000.0,032.8,026.0,8.9,0000.0,0008.93,0005.24,0004.99
2023-11-26 22:02:00,SystemResetWarning,0831.1,5.00,000.00,024.6,023.7,000.0,032.8,026.0,9.0,0000.0,0009.00,0005.30,0005.04
2023-11-26 22:03:00,SystemResetWarning,0831.1,5.00,000.00,024.6,023.7,000.0,032.8,026.0,9.1,0000.0,0008.98,0005.35,0005.10
2023-11-26 22:04:00,SystemResetWarning,0831.1,5.00,000.00,024.6,023.7,000.0,032.8,026.0,8.8,0000.0,0008.66,0005.40,0005.13
2023-11-26 22:05:00,SystemResetWarning,0831.1,5.00,000.00,024.7,023.7,000.0,032.8,026.0,8.7,0000.0,0008.70,0005.41,0005.15
2023-11-26 22:06:00,SystemResetWarning,0831.1,5.00,000.00,024.7,023.7,000.0,032.8,026.0,8.7,0000.0,0008.40,0005.42,0005.18
2023-11-26 22:07:00,SystemResetWarning,0831.2,5.00,000.00,024.7,023.7,000.0,032.8,026.0,8.9,0000.0,0008.05,0005.43,0005.20
2023-11-26 22:08:00,SystemResetWarning,0831.1,5.00,000.00,024.7,023.7,000.0,032.8,026.1,8.7,0000.0,0008.78,0005.45,0005.21
2023-11-26 22:09:00,SystemResetWarning,0831.1,5.01,000.00,024.7,023.7,000.0,032.8,026.1,8.8,0000.0,0009.12,0005.48,0005.22
2023-11-26 22:10:00,SystemResetWarning,0831.1,5.00,000.00,024.7,023.7,000.0,032.8,026.0,9.0,0000.0,0009.14,0005.49,0005.22
2023-11-26 22:11:00,SystemResetWarning,0831.1,5.01,000.00,024.7,023.7,000.0,032.9,026.0,9.2,0000.0,0009.15,0005.48,0005.22
2023-11-26 22:12:00,SystemResetWarning,0831.0,5.00,000.00,024.7,023.7,000.0,032.9,026.1,9.2,0000.0,0009.08,0005.47,0005.23
2023-11-26 22:13:00,SystemResetWarning,0831.0,5.00,000.00,024.7,023.7,000.0,032.9,026.0,9.2,0000.0,0009.04,0005.47,0005.23
2023-11-26 22:14:00,SystemResetWarning,0831.0,5.01,000.00,024.7,023.7,000.0,032.9,026.1,9.0,0000.0,0009.05,0005.48,0005.23
2023-11-26 22:15:00,SystemResetWarning,0831.1,5.00,000.00,024.7,023.7,000.0,032.9,026.1,9.0,0000.0,0008.92,0005.44,0005.22
2023-11-26 22:16:00,SystemResetWarning,0831.1,5.00,000.00,024.7,023.7,000.0,032.9,026.1,8.9,0000.0,0008.91,0005.46,0005.23
2023-11-26 22:17:00,SystemResetWarning,0831.2,4.99,000.00,024.7,023.8,000.0,032.9,026.1,9.0,0000.0,0008.86,0005.46,0005.23
2023-11-26 22:18:00,SystemResetWarning,0831.1,4.99,000.00,024.7,023.8,000.0,032.9,026.1,9.0,0000.0,0008.89,0005.49,0005.23
2023-11-26 22:19:00,SystemResetWarning,0831.1,5.00,000.00,024.7,023.8,000.0,032.9,026.1,9.0,0000.0,0008.45,0005.53,0005.26
2023-11-26 22:20:00,SystemResetWarning,0831.1,5.00,000.00,024.8,023.8,000.0,032.9,026.2,9.2,0000.0,0008.12,0005.57,0005.28
2023-11-26 22:21:00,SystemResetWarning,0831.1,5.00,000.00,024.8,023.8,000.0,032.9,026.2,9.0,0000.0,0008.11,0005.57,0005.30
2023-11-26 22:22:00,SystemResetWarning,0831.2,5.00,000.00,024.8,023.8,000.0,032.9,026.2,9.0,0000.0,0008.10,0005.57,0005.31
2023-11-26 22:23:00,SystemResetWarning,0831.2,5.00,000.00,024.8,023.8,000.0,032.9,026.2,8.9,0000.0,0008.26,0005.58,0005.32
2023-11-26 22:24:00,SystemResetWarning,0831.2,5.00,000.00,024.8,023.8,000.0,032.9,026.2,9.0,0000.0,0008.55,0005.59,0005.33
2023-11-26 22:25:00,SystemResetWarning,0831.3,5.01,000.00,024.8,023.8,000.0,032.9,026.2,9.2,0000.0,0008.54,0005.59,0005.35
2023-11-26 22:26:00,SystemResetWarning,0831.3,5.01,000.00,024.8,023.9,000.0,033.0,026.2,9.1,0000.0,0008.58,0005.61,0005.35
2023-11-26 22:27:00,SystemResetWarning,0831.3,5.01,000.00,024.8,023.9,000.0,033.0,026.2,9.0,0000.0,0008.55,0005.60,0005.36
2023-11-26 22:28:00,SystemResetWarning,0831.3,5.00,000.00,024.8,023.9,000.0,033.0,026.3,9.0,0000.0,0008.59,0005.60,0005.36
2023-11-26 22:29:00,SystemResetWarning,0831.3,5.00,000.00,024.9,023.9,000.0,033.0,026.3,9.0,0000.0,0008.60,0005.59,0005.37
2023-11-26 22:30:00,SystemResetWarning,0831.3,5.00,000.00,024.9,023.9,000.0,033.0,026.3,9.0,0000.0,0008.50,0005.57,0005.37
2023-11-26 22:31:00,SystemResetWarning,0831.3,5.01,000.00,024.9,023.9,000.0,033.0,026.3,9.1,0000.0,0008.38,0005.53,0005.37
2023-11-26 22:32:00,SystemResetWarning,0831.3,5.00,000.00,024.9,023.9,000.0,033.0,026.3,9.0,0000.0,0008.39,0005.54,0005.38
2023-11-26 22:33:00,SystemResetWarning,0831.2,5.00,000.00,024.9,023.9,000.0,033.0,026.3,8.9,0000.0,0008.41,0005.56,0005.40
2023-11-26 22:34:00,SystemResetWarning,0831.3,4.99,000.00,024.9,023.9,000.0,033.0,026.3,8.9,0000.0,0008.33,0005.58,0005.41
2023-11-26 22:35:00,SystemResetWarning,0831.3,5.00,000.00,024.9,023.9,000.0,033.0,026.3,8.6,0000.0,0008.02,0005.58,0005.41
2023-11-26 22:36:00,SystemResetWarning,0831.3,5.00,000.00,024.9,023.9,000.0,033.0,026.3,8.6,0000.0,0008.07,0005.61,0005.42
2023-11-26 22:37:00,SystemResetWarning,0831.3,5.00,000.00,024.9,023.9,000.0,033.1,026.3,8.6,0000.0,0008.20,0005.65,0005.45
2023-11-26 22:38:00,SystemResetWarning,0831.3,5.00,000.00,024.9,024.0,000.0,033.1,026.3,8.7,0000.0,0008.37,0005.70,0005.47
2023-11-26 22:39:00,SystemResetWarning,0831.3,5.01,000.00,024.9,024.0,000.0,033.1,026.3,8.7,0000.0,0008.46,0005.72,0005.48
2023-11-26 22:40:00,SystemResetWarning,0831.3,5.01,000.00,024.9,024.0,000.0,033.1,026.3,8.8,0000.0,0009.46,0005.73,0005.50
2023-11-26 22:41:00,SystemResetWarning,0831.3,5.00,000.00,025.0,024.0,000.0,033.1,026.4,8.7,0000.0,0009.58,0005.75,0005.53
2023-11-26 22:42:00,SystemResetWarning,0831.3,4.99,000.00,025.0,024.0,000.0,033.1,026.3,8.6,0000.0,0009.68,0005.79,0005.55
2023-11-26 22:43:00,SystemResetWarning,0831.3,5.00,000.00,025.0,024.0,000.0,033.1,026.3,8.5,0000.0,0009.76,0005.83,0005.57
2023-11-26 22:44:00,SystemResetWarning,0831.3,4.99,000.00,025.0,024.0,000.0,033.1,026.3,8.6,0000.0,0009.81,0005.85,0005.59
2023-11-26 22:45:00,SystemResetWarning,0831.3,5.00,000.00,025.0,024.0,000.0,033.1,026.4,8.6,0000.0,0009.86,0005.86,0005.59
2023-11-26 22:46:00,SystemResetWarning,0831.3,5.01,000.00,025.0,024.0,000.0,033.1,026.4,8.6,0000.0,0010.21,0005.87,0005.60
2023-11-26 22:47:00,SystemResetWarning,0831.3,4.99,000.00,025.0,024.0,000.0,033.1,026.3,8.5,0000.0,0010.26,0005.85,0005.59
2023-11-26 22:48:00,SystemResetWarning,0831.3,5.01,000.00,025.0,024.0,000.0,033.1,026.4,8.5,0000.0,0010.14,0005.81,0005.59
2023-11-26 22:49:00,SystemResetWarning,0831.2,5.01,000.00,025.0,024.0,000.0,033.2,026.4,8.5,0000.0,0009.99,0005.79,0005.59
2023-11-26 22:50:00,SystemResetWarning,0831.3,5.00,000.00,025.0,024.0,000.0,033.2,026.4,8.4,0000.7,0009.94,0005.79,0005.59
2023-11-26 22:51:00,SystemResetWarning,0831.2,5.00,000.00,025.0,024.0,000.0,033.2,026.4,8.3,0000.0,0008.97,0005.79,0005.59
2023-11-26 22:52:00,SystemResetWarning,0831.2,4.99,000.00,025.0,024.0,000.0,033.2,026.4,8.3,0000.0,0008.82,0005.79,0005.59
2023-11-26 22:53:00,SystemResetWarning,0831.3,5.00,000.00,025.0,024.0,000.0,033.2,026.4,8.3,0000.0,0008.91,0005.79,0005.58
2023-11-26 22:54:00,SystemResetWarning,0831.2,5.00,000.00,025.0,024.0,000.0,033.2,026.4,8.3,0000.0,0008.90,0005.78,0005.58
2023-11-26 22:55:00,SystemResetWarning,0831.2,5.00,000.00,025.0,024.0,000.0,033.2,026.4,8.3,0000.0,0008.91,0005.78,0005.58
2023-11-26 22:56:00,SystemResetWarning,0831.2,5.01,000.00,025.0,024.0,000.0,033.2,026.4,8.3,0000.0,0008.85,0005.77,0005.57
2023-11-26 22:57:00,SystemResetWarning,0831.2,5.01,000.00,025.0,024.0,000.0,033.2,026.4,8.4,0000.0,0008.61,0005.80,0005.59
2023-11-26 22:58:00,SystemResetWarning,0831.2,5.00,000.00,025.1,024.0,000.0,033.2,026.4,8.5,0000.0,0008.56,0005.81,0005.59
2023-11-26 22:59:00,SystemResetWarning,0831.3,5.00,000.00,025.1,024.0,000.0,033.2,026.4,8.4,0000.0,0008.66,0005.83,0005.60
